User: anonymous   Login
Location: Hope
(40.9110°N, 74.9680°W)
Time: 03:05:33
(UTC-04:00)
Language:

XW-2F - Orbit

View from above orbital plane
View from above orbital plane
View from above satellite
View from above satellite

Ground track
Ground track

The orbit data is extracted from the following two-line orbital elements,

1 40910U 15049M   21209.81842885  .00002168  00000-0  10602-3 0  9990
2 40910  97.4715 214.6075 0015238  32.1506  91.8053 15.19196483324002
Epoch (UTC): 28 July 2021 19:38:32
Eccentricity: 0.0015238
inclination: 97.4715°
perigee height: 498 km
apogee height: 519 km
right ascension of ascending node: 214.6075°
argument of perigee: 32.1506°
revolutions per day: 15.19196483
mean anomaly at epoch: 91.8053°
orbit number at epoch: 32400

The dashed part of the orbit path shows where the satellite is in the earth's shadow,  

DLR